• In Hungary
  • List of Countries
  • For 7 days
  • Water Temperature
  • Satellite Maps
  • Weather Map
  • News
  • Weather Widgets
  • user-avatar
    Login

    Hourly Weather Sagan-Nur

    Today, 24 September, Monday

    Time Temperature Precipitation Wind Pressure Humidity
    00:00 -1°C° 0 mm 1 mps 573 mmHg 70%
    01:00 -2°C° 0 mm 1 mps 572 mmHg 74%
    02:00 -2°C° 0 mm 1 mps 572 mmHg 74%
    03:00 -2°C° 0 mm 1 mps 572 mmHg 75%
    04:00 -2°C° 0 mm 1 mps 572 mmHg 76%
    05:00 -2°C° 0 mm 1 mps 572 mmHg 75%
    06:00 -2°C° 0 mm 1 mps 572 mmHg 75%
    07:00 -1°C° 0 mm 1 mps 573 mmHg 72%
    08:00 0°C° 0 mm 1 mps 573 mmHg 75%
    09:00 +2°C° 0 mm 1 mps 574 mmHg 78%
    10:00 +3°C° 0 mm 1 mps 574 mmHg 81%
    11:00 +4°C° 0 mm 1 mps 574 mmHg 79%
    12:00 +5°C° 0 mm 1 mps 574 mmHg 77%
    13:00 +5°C° 0 mm 1 mps 574 mmHg 75%
    14:00 +5°C° 0 mm 1 mps 574 mmHg 75%
    15:00 +5°C° 0 mm 1 mps 574 mmHg 75%
    16:00 +6°C° 0 mm 1 mps 574 mmHg 75%
    17:00 +4°C° 0 mm 1 mps 573 mmHg 76%
    18:00 +2°C° 0 mm 1 mps 572 mmHg 77%
    19:00 0°C° 0 mm 1 mps 572 mmHg 78%
    20:00 0°C° 0 mm 1 mps 572 mmHg 78%
    21:00 0°C° 0 mm 1 mps 572 mmHg 78%
    22:00 -1°C° 0 mm 1 mps 572 mmHg 78%
    23:00 -1°C° 0 mm 1 mps 572 mmHg 78%

    Tomorrow, 25 September, Tuesday

    Time Temperature Precipitation Wind Pressure Humidity
    00:00 -1°C° 0 mm 1 mps 572 mmHg 78%
    01:00 -1°C° 0 mm 1 mps 572 mmHg 77%
    02:00 -1°C° 0 mm 1 mps 572 mmHg 77%
    03:00 -1°C° 0 mm 1 mps 571 mmHg 77%
    04:00 -3°C° 0 mm 2 mps 571 mmHg 77%
    05:00 -3°C° 0 mm 2 mps 571 mmHg 75%
    06:00 -3°C° 0 mm 2 mps 571 mmHg 74%
    07:00 -3°C° 0 mm 2 mps 572 mmHg 73%
    08:00 -1°C° 0 mm 2 mps 572 mmHg 73%
    09:00 +1°C° 0 mm 2 mps 572 mmHg 73%
    10:00 +3°C° 0 mm 2 mps 573 mmHg 73%
    11:00 +5°C° 0 mm 1 mps 573 mmHg 72%
    12:00 +5°C° 0 mm 1 mps 573 mmHg 71%
    13:00 +6°C° 0 mm 1 mps 573 mmHg 70%
    14:00 +6°C° 0.1 mm 1 mps 573 mmHg 71%
    15:00 +5°C° 0.1 mm 1 mps 573 mmHg 72%
    16:00 +5°C° 0.1 mm 1 mps 573 mmHg 73%
    17:00 +4°C° 0.1 mm 1 mps 573 mmHg 76%
    18:00 +3°C° 0.1 mm 1 mps 573 mmHg 79%
    19:00 +2°C° 0.1 mm 1 mps 572 mmHg 82%
    20:00 +1°C° 0 mm 1 mps 572 mmHg 85%
    21:00 +1°C° 0 mm 1 mps 572 mmHg 87%
    22:00 0°C° 0 mm 1 mps 572 mmHg 89%
    23:00 0°C° 0.1 mm 1 mps 573 mmHg 91%

    Day after tomorrow, 26 September, Wednesday

    Time Temperature Precipitation Wind Pressure Humidity
    00:00 0°C° 0.1 mm 1 mps 573 mmHg 92%
    01:00 0°C° 0.1 mm 1 mps 573 mmHg 94%
    02:00 0°C° 0.1 mm 1 mps 573 mmHg 95%
    03:00 0°C° 0.1 mm 1 mps 573 mmHg 95%
    04:00 0°C° 0.1 mm 1 mps 573 mmHg 96%
    05:00 0°C° 0.1 mm 1 mps 573 mmHg 96%
    06:00 -2°C° 0.1 mm 2 mps 573 mmHg 95%
    07:00 -2°C° 0.1 mm 2 mps 574 mmHg 95%
    08:00 -2°C° 0.1 mm 2 mps 574 mmHg 92%
    09:00 -2°C° 0.1 mm 2 mps 574 mmHg 88%
    10:00 -1°C° 0.1 mm 3 mps 574 mmHg 85%
    11:00 -1°C° 0 mm 3 mps 574 mmHg 82%
    12:00 -1°C° 0 mm 3 mps 573 mmHg 80%
    13:00 -1°C° 0 mm 3 mps 573 mmHg 77%
    14:00 -1°C° 0.1 mm 3 mps 573 mmHg 77%
    15:00 -1°C° 0.1 mm 3 mps 573 mmHg 77%
    16:00 -1°C° 0.1 mm 3 mps 572 mmHg 76%
    17:00 -2°C° 0.2 mm 3 mps 572 mmHg 81%
    18:00 -3°C° 0.2 mm 2 mps 572 mmHg 85%
    19:00 -4°C° 0.2 mm 2 mps 572 mmHg 90%
    20:00 -4°C° 0.5 mm 2 mps 573 mmHg 91%
    21:00 -5°C° 0.5 mm 3 mps 573 mmHg 92%
    22:00 -5°C° 0.5 mm 3 mps 574 mmHg 93%
    23:00 -6°C° 0.3 mm 3 mps 574 mmHg 94%

    27 September, Thursday

    Time Temperature Precipitation Wind Pressure Humidity
    00:00 -5°C° 0.3 mm 2 mps 573 mmHg 94%
    01:00 -6°C° 0.3 mm 2 mps 573 mmHg 94%
    02:00 -6°C° 0 mm 2 mps 573 mmHg 95%
    03:00 -7°C° 0 mm 2 mps 573 mmHg 95%
    04:00 -7°C° 0 mm 2 mps 573 mmHg 95%
    05:00 -7°C° 0 mm 2 mps 574 mmHg 94%
    06:00 -7°C° 0 mm 2 mps 574 mmHg 93%
    07:00 -7°C° 0 mm 2 mps 575 mmHg 92%
    08:00 -6°C° 0.1 mm 2 mps 575 mmHg 86%
    09:00 -5°C° 0.1 mm 2 mps 575 mmHg 81%
    10:00 -6°C° 0.1 mm 3 mps 575 mmHg 76%
    11:00 -5°C° 0.1 mm 3 mps 575 mmHg 75%
    12:00 -5°C° 0.1 mm 3 mps 575 mmHg 74%
    13:00 -5°C° 0.1 mm 3 mps 575 mmHg 73%
    14:00 -5°C° 0.2 mm 3 mps 575 mmHg 74%
    15:00 -5°C° 0.2 mm 3 mps 575 mmHg 76%
    16:00 -5°C° 0.2 mm 3 mps 575 mmHg 77%
    17:00 -5°C° 0.3 mm 2 mps 575 mmHg 82%
    18:00 -5°C° 0.3 mm 2 mps 575 mmHg 87%
    19:00 -6°C° 0.3 mm 2 mps 575 mmHg 91%
    20:00 -7°C° 0.2 mm 2 mps 575 mmHg 92%
    21:00 -7°C° 0.2 mm 2 mps 575 mmHg 93%
    22:00 -7°C° 0.2 mm 1 mps 575 mmHg 93%
    23:00 -7°C° 0.2 mm 1 mps 575 mmHg 93%

    28 September, Friday

    Time Temperature Precipitation Wind Pressure Humidity
    00:00 -7°C° 0.2 mm 1 mps 574 mmHg 94%
    01:00 -8°C° 0.2 mm 2 mps 574 mmHg 94%
    02:00 -7°C° 0.2 mm 1 mps 574 mmHg 94%
    03:00 -7°C° 0.2 mm 1 mps 574 mmHg 95%
    04:00 -7°C° 0.2 mm 1 mps 574 mmHg 95%
    05:00 -7°C° 0.1 mm 1 mps 575 mmHg 95%
    06:00 -8°C° 0.1 mm 1 mps 575 mmHg 95%
    07:00 -8°C° 0.1 mm 1 mps 575 mmHg 95%
    08:00 -8°C° 0 mm 2 mps 575 mmHg 90%
    09:00 -7°C° 0 mm 2 mps 576 mmHg 85%
    10:00 -6°C° 0 mm 2 mps 576 mmHg 81%
    11:00 -6°C° 0 mm 2 mps 576 mmHg 78%
    12:00 -5°C° 0 mm 2 mps 576 mmHg 74%
    13:00 -4°C° 0 mm 2 mps 577 mmHg 71%
    14:00 -4°C° 0 mm 2 mps 577 mmHg 72%
    15:00 -4°C° 0 mm 2 mps 577 mmHg 73%
    16:00 -4°C° 0 mm 2 mps 577 mmHg 73%
    17:00 -6°C° 0 mm 2 mps 577 mmHg 78%
    18:00 -7°C° 0 mm 2 mps 576 mmHg 82%
    19:00 -8°C° 0 mm 2 mps 576 mmHg 87%
    20:00 -7°C° 0 mm 1 mps 576 mmHg 88%
    21:00 -7°C° 0 mm 1 mps 576 mmHg 89%
    22:00 -8°C° 0 mm 1 mps 576 mmHg 90%
    23:00 -8°C° 0 mm 1 mps 576 mmHg 90%

    29 September, Saturday

    Time Temperature Precipitation Wind Pressure Humidity
    00:00 -8°C° 0 mm 1 mps 576 mmHg 89%
    01:00 -8°C° 0 mm 1 mps 576 mmHg 89%
    02:00 -8°C° 0 mm 1 mps 576 mmHg 87%
    03:00 -8°C° 0 mm 1 mps 576 mmHg 86%
    04:00 -8°C° 0 mm 1 mps 576 mmHg 85%
    05:00 -8°C° 0 mm 1 mps 576 mmHg 83%
    06:00 -7°C° 0 mm 1 mps 576 mmHg 82%
    07:00 -7°C° 0 mm 1 mps 576 mmHg 81%
    08:00 -4°C° 0 mm 1 mps 577 mmHg 77%
    09:00 -3°C° 0 mm 1 mps 577 mmHg 74%
    10:00 -1°C° 0 mm 1 mps 577 mmHg 70%
    11:00 0°C° 0 mm 1 mps 577 mmHg 71%
    12:00 +1°C° 0 mm 1 mps 577 mmHg 72%
    13:00 +1°C° 0 mm 1 mps 577 mmHg 73%
    14:00 +2°C° 0 mm 1 mps 577 mmHg 72%
    15:00 +2°C° 0 mm 1 mps 577 mmHg 72%
    16:00 +2°C° 0 mm 1 mps 577 mmHg 71%
    17:00 0°C° 0 mm 1 mps 576 mmHg 74%
    18:00 -2°C° 0 mm 1 mps 575 mmHg 78%
    19:00 -3°C° 0 mm 1 mps 575 mmHg 81%
    20:00 -4°C° 0 mm 1 mps 575 mmHg 81%
    21:00 -4°C° 0 mm 1 mps 575 mmHg 81%
    22:00 -4°C° 0 mm 1 mps 575 mmHg 81%
    23:00 -4°C° 0 mm 1 mps 575 mmHg 81%
    Show more